Time,TemperatureF,DewpointF,PressureIn,WindDirection,WindDirectionDegrees,WindSpeedMPH,WindSpeedGustMPH,Humidity,HourlyPrecipIn,Conditions,Clouds,dailyrainin,SoftwareType,DateUTC
2013-05-14 00:01:00,37.6,33.8,30.10,West,277,0.0,0.0,86,0.00,,,0.00,meteobridge,2013-05-14 04:01:00,
2013-05-14 00:03:00,37.6,33.8,30.10,West,277,0.0,0.0,86,0.00,,,0.00,meteobridge,2013-05-14 04:03:00,
2013-05-14 00:04:00,37.6,34.0,30.10,West,277,0.0,0.0,87,0.00,,,0.00,meteobridge,2013-05-14 04:04:00,
2013-05-14 00:07:00,37.6,34.0,30.11,West,277,0.0,0.0,87,0.00,,,0.00,meteobridge,2013-05-14 04:07:00,
2013-05-14 00:08:00,37.6,34.0,30.11,West,277,0.0,0.0,87,0.00,,,0.00,meteobridge,2013-05-14 04:08:00,
2013-05-14 00:13:00,37.6,34.0,30.10,West,277,0.0,0.0,87,0.00,,,0.00,meteobridge,2013-05-14 04:13:00,
2013-05-14 00:19:00,37.6,34.3,30.11,West,277,0.0,0.0,88,0.00,,,0.00,meteobridge,2013-05-14 04:19:00,
2013-05-14 00:24:00,37.4,34.2,30.11,West,277,0.0,0.0,88,0.00,,,0.00,meteobridge,2013-05-14 04:24:00,
2013-05-14 00:29:00,37.2,34.0,30.11,West,277,0.0,0.0,88,0.00,,,0.00,meteobridge,2013-05-14 04:29:00,
2013-05-14 00:34:00,37.2,34.0,30.11,West,277,0.0,0.0,88,0.00,,,0.00,meteobridge,2013-05-14 04:34:00,
2013-05-14 00:39:00,37.0,33.8,30.10,West,277,0.0,0.0,88,0.00,,,0.00,meteobridge,2013-05-14 04:39:00,
2013-05-14 00:44:00,37.0,33.8,30.10,West,277,0.0,0.0,88,0.00,,,0.00,meteobridge,2013-05-14 04:44:00,
2013-05-14 00:50:00,36.9,33.6,30.10,West,277,0.0,0.0,88,0.00,,,0.00,meteobridge,2013-05-14 04:50:00,
2013-05-14 00:55:00,36.9,33.6,30.10,West,277,0.0,0.0,88,0.00,,,0.00,meteobridge,2013-05-14 04:55:00,
2013-05-14 01:00:00,36.9,33.6,30.10,West,277,0.0,0.0,88,0.00,,,0.00,meteobridge,2013-05-14 05:00:00,
2013-05-14 01:05:00,36.9,33.4,30.10,West,277,0.0,0.0,87,0.00,,,0.00,meteobridge,2013-05-14 05:05:00,
2013-05-14 01:11:00,36.9,33.4,30.10,West,277,0.0,0.0,87,0.00,,,0.00,meteobridge,2013-05-14 05:11:00,
2013-05-14 01:16:00,36.9,33.1,30.10,West,277,0.0,0.0,86,0.00,,,0.00,meteobridge,2013-05-14 05:16:00,
2013-05-14 01:22:00,37.0,33.3,30.10,West,277,0.0,0.0,86,0.00,,,0.00,meteobridge,2013-05-14 05:22:00,
2013-05-14 01:27:00,37.0,32.9,30.10,West,277,0.0,0.0,85,0.00,,,0.00,meteobridge,2013-05-14 05:27:00,
2013-05-14 01:32:00,37.0,33.3,30.10,West,277,0.0,0.0,86,0.00,,,0.00,meteobridge,2013-05-14 05:32:00,
2013-05-14 01:37:00,37.0,32.9,30.10,West,277,0.0,0.0,85,0.00,,,0.00,meteobridge,2013-05-14 05:37:00,
2013-05-14 01:42:00,37.0,33.3,30.10,West,277,0.0,0.0,86,0.00,,,0.00,meteobridge,2013-05-14 05:42:00,
2013-05-14 01:48:00,37.0,33.3,30.10,West,277,0.0,0.0,86,0.00,,,0.00,meteobridge,2013-05-14 05:48:00,
2013-05-14 01:53:00,37.0,33.3,30.10,West,277,0.0,0.0,86,0.00,,,0.00,meteobridge,2013-05-14 05:53:00,
2013-05-14 01:58:00,37.0,33.3,30.10,West,277,0.0,0.0,86,0.00,,,0.00,meteobridge,2013-05-14 05:58:00,
2013-05-14 02:04:00,37.0,33.3,30.10,West,277,0.0,0.0,86,0.00,,,0.00,meteobridge,2013-05-14 06:04:00,
2013-05-14 02:09:00,36.9,33.4,30.10,West,277,0.0,0.0,87,0.00,,,0.00,meteobridge,2013-05-14 06:09:00,
2013-05-14 02:14:00,36.9,33.4,30.10,West,277,0.0,0.0,87,0.00,,,0.00,meteobridge,2013-05-14 06:14:00,
2013-05-14 02:20:00,36.9,33.1,30.10,West,277,0.0,0.0,86,0.00,,,0.00,meteobridge,2013-05-14 06:20:00,
2013-05-14 02:25:00,36.9,33.1,30.10,West,278,0.0,0.0,86,0.00,,,0.00,meteobridge,2013-05-14 06:25:00,
2013-05-14 02:31:00,36.9,33.1,30.10,West,277,0.0,0.0,86,0.00,,,0.00,meteobridge,2013-05-14 06:31:00,
2013-05-14 02:36:00,36.9,32.7,30.10,West,277,0.0,0.0,85,0.00,,,0.00,meteobridge,2013-05-14 06:36:00,
2013-05-14 02:42:00,36.9,32.7,30.10,West,277,0.0,0.0,85,0.00,,,0.00,meteobridge,2013-05-14 06:42:00,
2013-05-14 02:47:00,36.7,32.9,30.10,West,277,0.0,0.0,86,0.00,,,0.00,meteobridge,2013-05-14 06:47:00,
2013-05-14 02:52:00,36.7,32.9,30.10,West,267,0.0,0.0,86,0.00,,,0.00,meteobridge,2013-05-14 06:52:00,
2013-05-14 02:57:00,36.7,32.9,30.10,West,267,0.0,0.9,86,0.00,,,0.00,meteobridge,2013-05-14 06:57:00,
2013-05-14 03:03:00,36.5,32.7,30.10,West,267,0.0,0.0,86,0.00,,,0.00,meteobridge,2013-05-14 07:03:00,
2013-05-14 03:08:00,36.5,32.7,30.10,West,267,0.0,0.0,86,0.00,,,0.00,meteobridge,2013-05-14 07:08:00,
2013-05-14 03:14:00,36.5,32.7,30.10,West,267,0.9,0.9,86,0.00,,,0.00,meteobridge,2013-05-14 07:14:00,
2013-05-14 03:19:00,36.3,32.5,30.10,WSW,254,0.0,0.9,86,0.00,,,0.00,meteobridge,2013-05-14 07:19:00,
2013-05-14 03:24:00,36.3,32.5,30.10,SW,229,0.0,0.9,86,0.00,,,0.00,meteobridge,2013-05-14 07:24:00,
2013-05-14 03:30:00,36.3,32.9,30.09,SSW,202,0.9,2.0,87,0.00,,,0.00,meteobridge,2013-05-14 07:30:00,
2013-05-14 03:35:00,36.1,32.7,30.10,West,272,0.0,0.9,87,0.00,,,0.00,meteobridge,2013-05-14 07:35:00,
2013-05-14 03:40:00,36.1,32.7,30.10,WSW,242,2.0,2.0,87,0.00,,,0.00,meteobridge,2013-05-14 07:40:00,
2013-05-14 03:46:00,36.1,32.4,30.10,SSW,204,0.0,2.0,86,0.00,,,0.00,meteobridge,2013-05-14 07:46:00,
2013-05-14 03:51:00,36.1,32.4,30.10,SSW,203,0.0,0.0,86,0.00,,,0.00,meteobridge,2013-05-14 07:51:00,
2013-05-14 03:56:00,36.1,32.4,30.10,SSW,204,0.0,0.9,86,0.00,,,0.00,meteobridge,2013-05-14 07:56:00,
2013-05-14 04:02:00,36.1,32.4,30.10,SSW,204,0.0,0.9,86,0.00,,,0.00,meteobridge,2013-05-14 08:02:00,
2013-05-14 04:07:00,36.1,32.0,30.10,SSW,203,0.0,0.0,85,0.00,,,0.00,meteobridge,2013-05-14 08:07:00,
2013-05-14 04:12:00,36.1,32.4,30.10,SSW,203,0.0,0.0,86,0.00,,,0.00,meteobridge,2013-05-14 08:12:00,
2013-05-14 04:17:00,36.0,32.2,30.11,SSW,203,0.0,0.0,86,0.00,,,0.00,meteobridge,2013-05-14 08:17:00,
2013-05-14 04:22:00,36.0,32.2,30.10,SSW,203,0.0,0.0,86,0.00,,,0.00,meteobridge,2013-05-14 08:22:00,
2013-05-14 04:27:00,35.8,32.4,30.10,SSW,203,0.0,0.0,87,0.00,,,0.00,meteobridge,2013-05-14 08:27:00,
2013-05-14 04:33:00,35.6,32.2,30.10,SSW,204,0.0,0.0,87,0.00,,,0.00,meteobridge,2013-05-14 08:33:00,
2013-05-14 04:38:00,35.4,32.0,30.10,SSW,204,0.0,0.0,87,0.00,,,0.00,meteobridge,2013-05-14 08:38:00,
2013-05-14 04:43:00,35.2,32.0,30.10,SSW,204,0.0,0.0,88,0.00,,,0.00,meteobridge,2013-05-14 08:43:00,
2013-05-14 04:48:00,34.9,31.6,30.10,SSW,203,0.0,0.0,88,0.00,,,0.00,meteobridge,2013-05-14 08:48:00,
2013-05-14 04:54:00,34.7,31.8,30.10,SSW,204,0.0,0.0,89,0.00,,,0.00,meteobridge,2013-05-14 08:54:00,
2013-05-14 04:59:00,34.5,31.6,30.10,SSW,204,0.0,0.0,89,0.00,,,0.00,meteobridge,2013-05-14 08:59:00,
2013-05-14 05:04:00,34.5,31.6,30.10,SSW,204,0.0,0.0,89,0.00,,,0.00,meteobridge,2013-05-14 09:04:00,
2013-05-14 05:09:00,34.5,31.6,30.10,SSW,203,0.0,0.0,89,0.00,,,0.00,meteobridge,2013-05-14 09:09:00,
2013-05-14 05:14:00,34.7,31.8,30.10,SSW,203,0.0,0.0,89,0.00,,,0.00,meteobridge,2013-05-14 09:14:00,
2013-05-14 05:19:00,34.9,32.0,30.10,SSW,204,0.0,0.9,89,0.00,,,0.00,meteobridge,2013-05-14 09:19:00,
2013-05-14 05:25:00,34.9,32.0,30.10,SSW,204,0.0,0.0,89,0.00,,,0.00,meteobridge,2013-05-14 09:25:00,
2013-05-14 05:30:00,34.9,32.0,30.10,SSW,203,0.0,0.0,89,0.00,,,0.00,meteobridge,2013-05-14 09:30:00,
2013-05-14 05:35:00,34.9,32.0,30.10,SSW,204,0.0,0.0,89,0.00,,,0.00,meteobridge,2013-05-14 09:35:00,
2013-05-14 05:40:00,34.9,32.0,30.11,SSW,204,0.0,0.0,89,0.00,,,0.00,meteobridge,2013-05-14 09:40:00,
2013-05-14 05:45:00,34.9,32.0,30.10,SSW,204,0.0,0.0,89,0.00,,,0.00,meteobridge,2013-05-14 09:45:00,
2013-05-14 05:50:00,34.5,31.6,30.10,SSW,203,0.0,0.0,89,0.00,,,0.00,meteobridge,2013-05-14 09:50:00,
2013-05-14 05:55:00,34.5,31.8,30.11,SSW,203,0.0,0.0,90,0.00,,,0.00,meteobridge,2013-05-14 09:55:00,
2013-05-14 06:00:00,34.5,31.8,30.10,SSW,203,0.0,0.0,90,0.00,,,0.00,meteobridge,2013-05-14 10:00:00,
2013-05-14 06:06:00,34.3,31.6,30.11,SSW,203,0.0,0.0,90,0.00,,,0.00,meteobridge,2013-05-14 10:06:00,
2013-05-14 06:11:00,34.3,31.6,30.11,SSW,203,0.0,0.0,90,0.00,,,0.00,meteobridge,2013-05-14 10:11:00,
2013-05-14 06:16:00,34.3,32.0,30.11,SSW,203,0.0,0.0,91,0.00,,,0.00,meteobridge,2013-05-14 10:16:00,
2013-05-14 06:22:00,34.3,32.0,30.11,SSW,204,0.0,0.0,91,0.00,,,0.00,meteobridge,2013-05-14 10:22:00,
2013-05-14 06:27:00,34.3,32.0,30.11,SSW,204,0.0,0.0,91,0.00,,,0.00,meteobridge,2013-05-14 10:27:00,
2013-05-14 06:32:00,34.5,32.2,30.11,SSW,203,0.0,0.0,91,0.00,,,0.00,meteobridge,2013-05-14 10:32:00,
2013-05-14 06:37:00,34.7,32.0,30.12,SSW,203,0.0,0.0,90,0.00,,,0.00,meteobridge,2013-05-14 10:37:00,
2013-05-14 06:43:00,35.1,32.4,30.12,SSW,204,0.0,0.0,90,0.00,,,0.00,meteobridge,2013-05-14 10:43:00,
2013-05-14 06:48:00,35.4,32.5,30.12,SSW,203,0.0,0.0,89,0.00,,,0.00,meteobridge,2013-05-14 10:48:00,
2013-05-14 06:53:00,36.0,33.1,30.12,SSW,212,0.0,0.9,89,0.00,,,0.00,meteobridge,2013-05-14 10:53:00,
2013-05-14 06:58:00,36.3,32.9,30.11,SW,227,0.9,0.9,87,0.00,,,0.00,meteobridge,2013-05-14 10:58:00,
2013-05-14 07:03:00,36.9,33.4,30.12,SW,227,0.0,0.0,87,0.00,,,0.00,meteobridge,2013-05-14 11:03:00,
2013-05-14 07:08:00,37.0,33.3,30.12,West,271,0.9,0.9,86,0.00,,,0.00,meteobridge,2013-05-14 11:08:00,
2013-05-14 07:14:00,37.6,33.4,30.12,WNW,299,0.0,0.9,85,0.00,,,0.00,meteobridge,2013-05-14 11:14:00,
2013-05-14 07:19:00,37.9,33.8,30.12,WNW,299,0.0,0.0,85,0.00,,,0.00,meteobridge,2013-05-14 11:19:00,
2013-05-14 07:24:00,38.1,33.8,30.12,WNW,299,0.0,0.0,84,0.00,,,0.00,meteobridge,2013-05-14 11:24:00,
2013-05-14 07:29:00,38.5,34.2,30.12,WNW,299,0.0,0.0,84,0.00,,,0.00,meteobridge,2013-05-14 11:29:00,
2013-05-14 07:35:00,38.7,34.0,30.12,WNW,299,0.0,0.0,83,0.00,,,0.00,meteobridge,2013-05-14 11:35:00,
2013-05-14 07:40:00,39.2,33.8,30.13,WNW,299,0.0,0.9,81,0.00,,,0.00,meteobridge,2013-05-14 11:40:00,
2013-05-14 07:46:00,39.7,34.2,30.13,WSW,258,0.0,0.0,80,0.00,,,0.00,meteobridge,2013-05-14 11:46:00,
2013-05-14 07:51:00,40.1,34.2,30.13,WSW,258,0.9,2.0,79,0.00,,,0.00,meteobridge,2013-05-14 11:51:00,
2013-05-14 07:56:00,40.6,34.3,30.13,West,273,0.9,0.9,78,0.00,,,0.00,meteobridge,2013-05-14 11:56:00,
2013-05-14 08:02:00,41.0,34.7,30.13,WSW,245,0.0,0.9,78,0.00,,,0.00,meteobridge,2013-05-14 12:02:00,
2013-05-14 08:07:00,41.4,34.3,30.13,SW,223,0.0,0.9,76,0.00,,,0.00,meteobridge,2013-05-14 12:07:00,
2013-05-14 08:13:00,41.5,34.5,30.12,WNW,302,0.9,0.9,76,0.00,,,0.00,meteobridge,2013-05-14 12:13:00,
2013-05-14 08:18:00,41.7,34.0,30.13,WNW,302,0.0,2.0,74,0.00,,,0.00,meteobridge,2013-05-14 12:18:00,
2013-05-14 08:23:00,42.3,33.8,30.12,WNW,302,0.0,0.9,72,0.00,,,0.00,meteobridge,2013-05-14 12:23:00,
2013-05-14 08:29:00,42.6,34.2,30.13,NW,321,0.9,2.0,72,0.00,,,0.00,meteobridge,2013-05-14 12:29:00,
2013-05-14 08:34:00,43.2,34.3,30.12,NNW,333,0.9,0.9,71,0.00,,,0.00,meteobridge,2013-05-14 12:34:00,
2013-05-14 08:39:00,43.7,33.8,30.12,WNW,300,0.9,0.9,68,0.00,,,0.00,meteobridge,2013-05-14 12:39:00,
2013-05-14 08:44:00,44.2,34.0,30.12,WNW,303,0.0,2.0,67,0.00,,,0.00,meteobridge,2013-05-14 12:44:00,
2013-05-14 08:50:00,44.8,33.8,30.12,NW,320,0.9,2.0,65,0.00,,,0.00,meteobridge,2013-05-14 12:50:00,
2013-05-14 08:55:00,45.3,33.1,30.12,SW,217,0.0,2.0,62,0.00,,,0.00,meteobridge,2013-05-14 12:55:00,
2013-05-14 09:00:00,46.0,33.8,30.12,WNW,297,0.0,0.9,62,0.00,,,0.00,meteobridge,2013-05-14 13:00:00,
2013-05-14 09:05:00,46.8,33.6,30.12,WNW,292,0.0,2.0,60,0.00,,,0.00,meteobridge,2013-05-14 13:05:00,
2013-05-14 09:10:00,47.5,32.2,30.12,NW,306,2.0,2.9,55,0.00,,,0.00,meteobridge,2013-05-14 13:10:00,
2013-05-14 09:15:00,47.8,33.3,30.12,WNW,286,0.9,2.9,57,0.00,,,0.00,meteobridge,2013-05-14 13:15:00,
2013-05-14 09:21:00,48.0,32.2,30.11,North,5,2.0,4.0,54,0.00,,,0.00,meteobridge,2013-05-14 13:21:00,
2013-05-14 09:27:00,48.2,32.4,30.11,NW,309,0.0,0.9,54,0.00,,,0.00,meteobridge,2013-05-14 13:27:00,
2013-05-14 09:32:00,48.4,32.5,30.11,NNW,331,0.0,2.0,54,0.00,,,0.00,meteobridge,2013-05-14 13:32:00,
2013-05-14 09:37:00,48.6,34.0,30.11,NNW,337,0.0,2.9,57,0.00,,,0.00,meteobridge,2013-05-14 13:37:00,
2013-05-14 09:43:00,48.6,32.2,30.11,NNW,328,0.0,2.0,53,0.00,,,0.00,meteobridge,2013-05-14 13:43:00,
2013-05-14 09:48:00,48.6,31.8,30.11,WSW,258,0.9,2.9,52,0.00,,,0.00,meteobridge,2013-05-14 13:48:00,
2013-05-14 09:53:00,48.7,32.4,30.11,WNW,286,0.9,2.0,53,0.00,,,0.00,meteobridge,2013-05-14 13:53:00,
2013-05-14 09:58:00,48.9,32.5,30.11,North,351,2.0,4.0,53,0.00,,,0.00,meteobridge,2013-05-14 13:58:00,
2013-05-14 10:04:00,49.3,32.9,30.11,WNW,299,2.0,2.0,53,0.00,,,0.00,meteobridge,2013-05-14 14:04:00,
2013-05-14 10:09:00,49.5,32.0,30.11,WNW,298,0.0,2.9,51,0.00,,,0.00,meteobridge,2013-05-14 14:09:00,
2013-05-14 10:14:00,49.6,33.3,30.11,NNW,339,0.0,2.0,53,0.00,,,0.00,meteobridge,2013-05-14 14:14:00,
2013-05-14 10:20:00,49.8,32.9,30.11,WNW,292,0.9,0.9,52,0.00,,,0.00,meteobridge,2013-05-14 14:20:00,
2013-05-14 10:25:00,49.8,32.9,30.11,NW,304,0.0,2.0,52,0.00,,,0.00,meteobridge,2013-05-14 14:25:00,
2013-05-14 10:30:00,50.2,31.8,30.10,SSW,207,4.0,6.9,49,0.00,,,0.00,meteobridge,2013-05-14 14:30:00,
2013-05-14 10:35:00,50.2,31.3,30.10,WNW,303,2.0,2.9,48,0.00,,,0.00,meteobridge,2013-05-14 14:35:00,
2013-05-14 10:40:00,50.4,31.5,30.11,North,355,0.9,2.9,48,0.00,,,0.00,meteobridge,2013-05-14 14:40:00,
2013-05-14 10:46:00,50.5,31.6,30.11,WNW,302,2.0,2.0,48,0.00,,,0.00,meteobridge,2013-05-14 14:46:00,
2013-05-14 10:51:00,50.5,31.6,30.10,NW,306,0.9,2.9,48,0.00,,,0.00,meteobridge,2013-05-14 14:51:00,
2013-05-14 10:56:00,50.9,30.9,30.10,North,355,2.9,2.9,46,0.00,,,0.00,meteobridge,2013-05-14 14:56:00,
2013-05-14 11:02:00,51.1,29.8,30.10,WNW,296,0.0,2.0,44,0.00,,,0.00,meteobridge,2013-05-14 15:02:00,
2013-05-14 11:07:00,51.3,31.6,30.10,WNW,293,2.9,4.0,47,0.00,,,0.00,meteobridge,2013-05-14 15:07:00,
2013-05-14 11:13:00,51.4,30.7,30.10,NNW,344,2.0,2.9,45,0.00,,,0.00,meteobridge,2013-05-14 15:13:00,
2013-05-14 11:18:00,51.8,30.0,30.10,NNE,15,0.9,4.0,43,0.00,,,0.00,meteobridge,2013-05-14 15:18:00,
2013-05-14 11:23:00,52.2,29.1,30.10,WNW,294,0.0,4.0,41,0.00,,,0.00,meteobridge,2013-05-14 15:23:00,
2013-05-14 11:28:00,52.3,29.3,30.10,WNW,296,2.0,6.0,41,0.00,,,0.00,meteobridge,2013-05-14 15:28:00,
2013-05-14 11:33:00,52.7,29.1,30.10,WNW,288,0.9,0.9,40,0.00,,,0.00,meteobridge,2013-05-14 15:33:00,
2013-05-14 11:38:00,52.7,28.4,30.09,NW,304,0.9,0.9,39,0.00,,,0.00,meteobridge,2013-05-14 15:38:00,
2013-05-14 11:44:00,52.7,29.7,30.09,WNW,296,0.0,0.9,41,0.00,,,0.00,meteobridge,2013-05-14 15:44:00,
2013-05-14 11:49:00,53.1,30.6,30.09,NW,321,2.0,2.9,42,0.00,,,0.00,meteobridge,2013-05-14 15:49:00,
2013-05-14 11:54:00,53.4,26.4,30.09,NW,311,0.0,2.9,35,0.00,,,0.00,meteobridge,2013-05-14 15:54:00,
2013-05-14 12:00:00,53.4,30.4,30.09,NW,312,2.0,2.0,41,0.00,,,0.00,meteobridge,2013-05-14 16:00:00,
2013-05-14 12:05:00,54.1,30.4,30.09,WNW,302,2.9,2.9,40,0.00,,,0.00,meteobridge,2013-05-14 16:05:00,
2013-05-14 12:10:00,54.3,27.9,30.09,WSW,252,2.9,4.9,36,0.00,,,0.00,meteobridge,2013-05-14 16:10:00,
2013-05-14 12:15:00,54.7,31.5,30.09,NNW,330,0.9,2.0,41,0.00,,,0.00,meteobridge,2013-05-14 16:15:00,
2013-05-14 12:20:00,55.0,29.3,30.09,West,267,2.9,4.0,37,0.00,,,0.00,meteobridge,2013-05-14 16:20:00,
2013-05-14 12:26:00,55.6,29.1,30.09,WNW,296,0.0,4.0,36,0.00,,,0.00,meteobridge,2013-05-14 16:26:00,
2013-05-14 12:31:00,55.9,28.8,30.09,West,274,2.0,2.0,35,0.00,,,0.00,meteobridge,2013-05-14 16:31:00,
2013-05-14 12:37:00,56.1,27.3,30.10,NW,309,2.9,4.9,33,0.00,,,0.00,meteobridge,2013-05-14 16:37:00,
2013-05-14 12:42:00,55.4,28.9,30.09,NNW,330,2.0,2.9,36,0.00,,,0.00,meteobridge,2013-05-14 16:42:00,
2013-05-14 12:47:00,55.6,29.1,30.09,WSW,244,0.0,0.9,36,0.00,,,0.00,meteobridge,2013-05-14 16:47:00,
2013-05-14 12:53:00,56.1,28.8,30.09,NNE,17,0.9,2.9,35,0.00,,,0.00,meteobridge,2013-05-14 16:53:00,
2013-05-14 12:58:00,56.7,30.7,30.09,North,355,0.9,4.9,37,0.00,,,0.00,meteobridge,2013-05-14 16:58:00,
2013-05-14 13:03:00,57.7,30.9,30.09,SSW,193,4.0,6.0,36,0.00,,,0.00,meteobridge,2013-05-14 17:03:00,
2013-05-14 13:08:00,57.9,28.2,30.09,NW,319,0.0,2.9,32,0.00,,,0.00,meteobridge,2013-05-14 17:08:00,
2013-05-14 13:13:00,57.7,30.2,30.09,NNW,335,0.0,2.0,35,0.00,,,0.00,meteobridge,2013-05-14 17:13:00,
2013-05-14 13:19:00,57.6,28.6,30.09,NNW,327,0.9,4.0,33,0.00,,,0.00,meteobridge,2013-05-14 17:19:00,
2013-05-14 13:24:00,57.9,29.7,30.09,East,85,0.9,2.0,34,0.00,,,0.00,meteobridge,2013-05-14 17:24:00,
2013-05-14 13:29:00,58.8,31.3,30.09,SSW,194,2.0,4.0,35,0.00,,,0.00,meteobridge,2013-05-14 17:29:00,
2013-05-14 13:35:00,59.7,30.6,30.09,WNW,303,2.0,4.0,33,0.00,,,0.00,meteobridge,2013-05-14 17:35:00,
2013-05-14 13:40:00,59.5,28.9,30.09,NNW,339,0.0,2.0,31,0.00,,,0.00,meteobridge,2013-05-14 17:40:00,
2013-05-14 13:45:00,59.4,27.1,30.09,WNW,296,2.0,4.0,29,0.00,,,0.00,meteobridge,2013-05-14 17:45:00,
2013-05-14 13:50:00,59.0,28.4,30.09,NW,315,0.9,2.9,31,0.00,,,0.00,meteobridge,2013-05-14 17:50:00,
2013-05-14 13:55:00,58.8,28.9,30.09,NW,323,0.9,2.9,32,0.00,,,0.00,meteobridge,2013-05-14 17:55:00,
2013-05-14 14:00:00,58.8,28.9,30.09,WNW,294,2.0,2.0,32,0.00,,,0.00,meteobridge,2013-05-14 18:00:00,
2013-05-14 14:06:00,58.8,29.8,30.08,WNW,303,0.9,2.9,33,0.00,,,0.00,meteobridge,2013-05-14 18:06:00,
2013-05-14 14:11:00,59.0,29.1,30.08,NW,309,0.9,4.0,32,0.00,,,0.00,meteobridge,2013-05-14 18:11:00,
2013-05-14 14:17:00,58.8,26.6,30.08,WNW,290,0.0,2.9,29,0.00,,,0.00,meteobridge,2013-05-14 18:17:00,
2013-05-14 14:22:00,59.2,27.7,30.08,WNW,297,2.9,2.9,30,0.00,,,0.00,meteobridge,2013-05-14 18:22:00,
2013-05-14 14:27:00,59.4,28.8,30.08,WNW,300,0.0,2.0,31,0.00,,,0.00,meteobridge,2013-05-14 18:27:00,
2013-05-14 14:32:00,59.7,28.2,30.08,WNW,299,2.0,2.0,30,0.00,,,0.00,meteobridge,2013-05-14 18:32:00,
2013-05-14 14:38:00,59.7,29.8,30.07,ESE,103,0.0,0.9,32,0.00,,,0.00,meteobridge,2013-05-14 18:38:00,
2013-05-14 14:43:00,59.2,27.7,30.07,NW,306,0.9,0.9,30,0.00,,,0.00,meteobridge,2013-05-14 18:43:00,
2013-05-14 14:48:00,58.6,28.0,30.07,NW,317,0.9,2.9,31,0.00,,,0.00,meteobridge,2013-05-14 18:48:00,
2013-05-14 14:54:00,58.5,27.9,30.07,NNW,339,2.0,2.9,31,0.00,,,0.00,meteobridge,2013-05-14 18:54:00,
2013-05-14 14:59:00,58.6,28.0,30.07,WNW,298,0.9,2.9,31,0.00,,,0.00,meteobridge,2013-05-14 18:59:00,
2013-05-14 15:04:00,58.8,27.5,30.07,NW,308,0.9,2.0,30,0.00,,,0.00,meteobridge,2013-05-14 19:04:00,
2013-05-14 15:10:00,59.0,28.4,30.07,North,9,0.0,4.0,31,0.00,,,0.00,meteobridge,2013-05-14 19:10:00,
2013-05-14 15:15:00,59.4,27.9,30.06,SW,236,0.0,2.0,30,0.00,,,0.00,meteobridge,2013-05-14 19:15:00,
2013-05-14 15:20:00,59.7,29.8,30.06,NNW,344,0.9,2.0,32,0.00,,,0.00,meteobridge,2013-05-14 19:20:00,
2013-05-14 15:25:00,60.1,29.3,30.06,NW,324,0.9,2.0,31,0.00,,,0.00,meteobridge,2013-05-14 19:25:00,
2013-05-14 15:31:00,59.9,26.8,30.06,NW,304,0.9,4.0,28,0.00,,,0.00,meteobridge,2013-05-14 19:31:00,
2013-05-14 15:36:00,59.5,27.3,30.06,NNW,344,0.9,2.9,29,0.00,,,0.00,meteobridge,2013-05-14 19:36:00,
2013-05-14 15:41:00,59.7,25.7,30.06,West,265,0.9,2.9,27,0.00,,,0.00,meteobridge,2013-05-14 19:41:00,
2013-05-14 15:47:00,59.2,27.7,30.05,WNW,291,0.9,2.9,30,0.00,,,0.00,meteobridge,2013-05-14 19:47:00,
2013-05-14 15:52:00,58.8,27.5,30.05,WSW,257,2.0,2.0,30,0.00,,,0.00,meteobridge,2013-05-14 19:52:00,
2013-05-14 15:57:00,58.8,27.5,30.05,NNW,341,0.0,2.9,30,0.00,,,0.00,meteobridge,2013-05-14 19:57:00,
2013-05-14 16:03:00,58.8,27.5,30.05,NNW,340,0.0,0.9,30,0.00,,,0.00,meteobridge,2013-05-14 20:03:00,
2013-05-14 16:08:00,58.8,28.2,30.05,NNW,333,0.0,2.0,31,0.00,,,0.00,meteobridge,2013-05-14 20:08:00,
2013-05-14 16:13:00,58.6,27.3,30.05,NNE,31,0.9,2.9,30,0.00,,,0.00,meteobridge,2013-05-14 20:13:00,
2013-05-14 16:18:00,58.5,27.9,30.04,NNW,345,0.0,0.0,31,0.00,,,0.00,meteobridge,2013-05-14 20:18:00,
2013-05-14 16:23:00,58.6,29.7,30.04,NNW,336,2.0,2.0,33,0.00,,,0.00,meteobridge,2013-05-14 20:23:00,
2013-05-14 16:29:00,58.6,28.0,30.04,North,0,0.9,2.0,31,0.00,,,0.00,meteobridge,2013-05-14 20:29:00,
2013-05-14 16:34:00,58.8,28.9,30.04,NNW,340,0.9,2.9,32,0.00,,,0.00,meteobridge,2013-05-14 20:34:00,
2013-05-14 16:39:00,58.8,28.2,30.04,NW,319,0.0,2.0,31,0.00,,,0.00,meteobridge,2013-05-14 20:39:00,
2013-05-14 16:45:00,58.8,27.5,30.04,WNW,296,0.9,2.0,30,0.00,,,0.00,meteobridge,2013-05-14 20:45:00,
2013-05-14 16:50:00,58.6,27.3,30.03,NNW,337,0.0,0.9,30,0.00,,,0.00,meteobridge,2013-05-14 20:50:00,
2013-05-14 16:55:00,58.5,27.9,30.03,SSW,194,4.0,4.0,31,0.00,,,0.00,meteobridge,2013-05-14 20:55:00,
2013-05-14 17:00:00,58.3,27.0,30.04,WNW,300,0.9,2.9,30,0.00,,,0.00,meteobridge,2013-05-14 21:00:00,
2013-05-14 17:05:00,58.1,26.8,30.03,NW,312,0.9,2.9,30,0.00,,,0.00,meteobridge,2013-05-14 21:05:00,
2013-05-14 17:11:00,58.3,27.9,30.03,NW,312,0.0,2.0,31,0.00,,,0.00,meteobridge,2013-05-14 21:11:00,
2013-05-14 17:16:00,58.5,25.5,30.03,NW,308,0.0,2.9,28,0.00,,,0.00,meteobridge,2013-05-14 21:16:00,
2013-05-14 17:21:00,58.3,26.2,30.03,WNW,297,0.0,0.9,29,0.00,,,0.00,meteobridge,2013-05-14 21:21:00,
2013-05-14 17:26:00,58.3,25.3,30.03,SSW,196,2.9,4.0,28,0.00,,,0.00,meteobridge,2013-05-14 21:26:00,
2013-05-14 17:31:00,58.3,24.4,30.03,NW,316,0.9,4.0,27,0.00,,,0.00,meteobridge,2013-05-14 21:31:00,
2013-05-14 17:36:00,57.9,27.5,30.03,West,277,0.9,0.9,31,0.00,,,0.00,meteobridge,2013-05-14 21:36:00,
2013-05-14 17:42:00,57.9,25.0,30.03,SSW,211,2.0,2.0,28,0.00,,,0.00,meteobridge,2013-05-14 21:42:00,
2013-05-14 17:47:00,57.9,24.1,30.03,NW,309,0.0,2.0,27,0.00,,,0.00,meteobridge,2013-05-14 21:47:00,
2013-05-14 17:53:00,58.1,26.1,30.03,SSW,199,2.0,2.9,29,0.00,,,0.00,meteobridge,2013-05-14 21:53:00,
2013-05-14 17:58:00,57.9,24.1,30.03,SSW,205,0.0,4.9,27,0.00,,,0.00,meteobridge,2013-05-14 21:58:00,
2013-05-14 18:03:00,57.7,25.7,30.03,NW,314,0.9,0.9,29,0.00,,,0.00,meteobridge,2013-05-14 22:03:00,
2013-05-14 18:08:00,57.7,24.8,30.03,SSW,198,0.9,0.9,28,0.00,,,0.00,meteobridge,2013-05-14 22:08:00,
2013-05-14 18:14:00,58.1,25.2,30.03,WNW,303,0.0,2.9,28,0.00,,,0.00,meteobridge,2013-05-14 22:14:00,
2013-05-14 18:19:00,58.5,27.1,30.03,NNW,327,0.0,0.9,30,0.00,,,0.00,meteobridge,2013-05-14 22:19:00,
2013-05-14 18:24:00,58.8,25.7,30.03,WNW,299,0.0,0.9,28,0.00,,,0.00,meteobridge,2013-05-14 22:24:00,
2013-05-14 18:29:00,58.6,22.8,30.03,SSE,155,0.0,4.0,25,0.00,,,0.00,meteobridge,2013-05-14 22:29:00,
2013-05-14 18:34:00,58.6,26.4,30.03,SSE,155,0.9,0.9,29,0.00,,,0.00,meteobridge,2013-05-14 22:34:00,
2013-05-14 18:40:00,58.5,23.7,30.03,SW,221,0.9,2.9,26,0.00,,,0.00,meteobridge,2013-05-14 22:40:00,
2013-05-14 18:45:00,58.3,24.4,30.03,WSW,252,0.9,2.9,27,0.00,,,0.00,meteobridge,2013-05-14 22:45:00,
2013-05-14 18:50:00,57.9,25.0,30.03,WSW,243,0.9,2.0,28,0.00,,,0.00,meteobridge,2013-05-14 22:50:00,
2013-05-14 18:55:00,57.9,25.0,30.03,West,259,0.0,0.0,28,0.00,,,0.00,meteobridge,2013-05-14 22:55:00,
2013-05-14 19:01:00,57.7,24.8,30.03,SW,225,0.9,2.0,28,0.00,,,0.00,meteobridge,2013-05-14 23:01:00,
2013-05-14 19:06:00,57.6,24.6,30.03,WSW,244,0.0,0.0,28,0.00,,,0.00,meteobridge,2013-05-14 23:06:00,
2013-05-14 19:12:00,57.4,27.0,30.03,WSW,244,0.0,0.0,31,0.00,,,0.00,meteobridge,2013-05-14 23:12:00,
2013-05-14 19:17:00,57.0,27.5,30.03,SW,229,0.0,0.0,32,0.00,,,0.00,meteobridge,2013-05-14 23:17:00,
2013-05-14 19:22:00,56.8,27.3,30.03,SW,229,0.0,0.9,32,0.00,,,0.00,meteobridge,2013-05-14 23:22:00,
2013-05-14 19:28:00,56.7,29.3,30.03,SW,229,0.0,0.0,35,0.00,,,0.00,meteobridge,2013-05-14 23:28:00,
2013-05-14 19:33:00,56.5,29.8,30.03,SW,229,0.0,0.0,36,0.00,,,0.00,meteobridge,2013-05-14 23:33:00,
2013-05-14 19:39:00,56.1,27.3,30.03,SW,229,0.0,0.0,33,0.00,,,0.00,meteobridge,2013-05-14 23:39:00,
2013-05-14 19:44:00,55.9,28.8,30.03,SW,229,0.0,0.0,35,0.00,,,0.00,meteobridge,2013-05-14 23:44:00,
2013-05-14 19:49:00,55.6,31.1,30.03,SW,229,0.0,0.0,39,0.00,,,0.00,meteobridge,2013-05-14 23:49:00,
2013-05-14 19:55:00,55.2,30.7,30.03,SW,229,0.0,0.0,39,0.00,,,0.00,meteobridge,2013-05-14 23:55:00,
2013-05-14 20:00:00,54.7,31.5,30.04,SW,229,0.0,0.0,41,0.00,,,0.00,meteobridge,2013-05-15 00:00:00,
2013-05-14 20:05:00,54.1,31.5,30.04,SW,229,0.0,0.9,42,0.00,,,0.00,meteobridge,2013-05-15 00:05:00,
2013-05-14 20:10:00,53.2,31.8,30.03,SW,215,0.0,0.9,44,0.00,,,0.00,meteobridge,2013-05-15 00:10:00,
2013-05-14 20:16:00,52.5,31.3,30.04,SW,215,0.9,0.9,44,0.00,,,0.00,meteobridge,2013-05-15 00:16:00,
2013-05-14 20:21:00,51.8,33.3,30.04,SW,215,0.0,0.9,49,0.00,,,0.00,meteobridge,2013-05-15 00:21:00,
2013-05-14 20:27:00,51.1,32.0,30.04,SW,215,0.0,0.0,48,0.00,,,0.00,meteobridge,2013-05-15 00:27:00,
2013-05-14 20:32:00,50.5,32.0,30.04,SW,215,0.0,0.0,49,0.00,,,0.00,meteobridge,2013-05-15 00:32:00,
2013-05-14 20:37:00,49.8,32.4,30.05,SW,215,0.0,0.0,51,0.00,,,0.00,meteobridge,2013-05-15 00:37:00,
2013-05-14 20:42:00,49.3,32.4,30.04,SW,215,0.0,0.0,52,0.00,,,0.00,meteobridge,2013-05-15 00:42:00,
2013-05-14 20:48:00,48.6,32.7,30.05,SW,215,0.0,0.0,54,0.00,,,0.00,meteobridge,2013-05-15 00:48:00,
2013-05-14 20:53:00,48.2,32.7,30.05,SW,215,0.0,0.0,55,0.00,,,0.00,meteobridge,2013-05-15 00:53:00,
2013-05-14 20:59:00,47.8,32.9,30.05,SW,215,0.0,0.0,56,0.00,,,0.00,meteobridge,2013-05-15 00:59:00,
2013-05-14 21:04:00,47.7,33.3,30.05,SW,215,0.0,0.0,57,0.00,,,0.00,meteobridge,2013-05-15 01:04:00,
2013-05-14 21:09:00,47.3,32.9,30.06,SW,215,0.0,0.0,57,0.00,,,0.00,meteobridge,2013-05-15 01:09:00,
2013-05-14 21:15:00,46.9,32.9,30.06,SW,215,0.0,0.0,58,0.00,,,0.00,meteobridge,2013-05-15 01:15:00,
2013-05-14 21:20:00,46.8,33.3,30.06,SW,215,0.0,0.0,59,0.00,,,0.00,meteobridge,2013-05-15 01:20:00,
2013-05-14 21:25:00,46.4,33.3,30.06,SW,215,0.0,0.0,60,0.00,,,0.00,meteobridge,2013-05-15 01:25:00,
2013-05-14 21:30:00,46.0,33.8,30.06,SW,215,0.0,0.0,62,0.00,,,0.00,meteobridge,2013-05-15 01:30:00,
2013-05-14 21:36:00,45.7,33.1,30.07,SW,215,0.0,0.0,61,0.00,,,0.00,meteobridge,2013-05-15 01:36:00,
2013-05-14 21:41:00,45.1,32.9,30.07,SW,215,0.0,0.0,62,0.00,,,0.00,meteobridge,2013-05-15 01:41:00,
2013-05-14 21:46:00,45.0,33.4,30.07,SW,215,0.0,0.0,64,0.00,,,0.00,meteobridge,2013-05-15 01:46:00,
2013-05-14 21:51:00,44.4,33.1,30.07,SW,215,0.0,0.0,64,0.00,,,0.00,meteobridge,2013-05-15 01:51:00,
2013-05-14 21:57:00,44.2,33.6,30.07,SW,215,0.0,0.0,66,0.00,,,0.00,meteobridge,2013-05-15 01:57:00,
2013-05-14 22:03:00,44.1,33.8,30.07,SW,215,0.0,0.0,67,0.00,,,0.00,meteobridge,2013-05-15 02:03:00,
2013-05-14 22:08:00,43.9,34.0,30.07,SW,215,0.0,0.0,68,0.00,,,0.00,meteobridge,2013-05-15 02:08:00,
2013-05-14 22:13:00,43.5,33.3,30.07,SW,215,0.0,0.0,67,0.00,,,0.00,meteobridge,2013-05-15 02:13:00,
2013-05-14 22:19:00,43.5,33.3,30.08,SW,215,0.0,0.0,67,0.00,,,0.00,meteobridge,2013-05-15 02:19:00,
2013-05-14 22:24:00,43.3,33.8,30.08,SW,215,0.0,0.0,69,0.00,,,0.00,meteobridge,2013-05-15 02:24:00,
2013-05-14 22:30:00,43.2,34.0,30.08,SW,215,0.0,0.0,70,0.00,,,0.00,meteobridge,2013-05-15 02:30:00,
2013-05-14 22:35:00,42.8,34.0,30.07,SW,215,0.0,0.0,71,0.00,,,0.00,meteobridge,2013-05-15 02:35:00,
2013-05-14 22:40:00,42.6,34.2,30.08,SW,215,0.0,0.0,72,0.00,,,0.00,meteobridge,2013-05-15 02:40:00,
2013-05-14 22:46:00,42.3,33.6,30.08,SW,215,0.0,0.0,71,0.00,,,0.00,meteobridge,2013-05-15 02:46:00,
2013-05-14 22:52:00,42.1,33.8,30.07,SW,215,0.0,0.0,72,0.00,,,0.00,meteobridge,2013-05-15 02:52:00,
2013-05-14 22:58:00,41.9,34.2,30.08,SW,215,0.0,0.0,74,0.00,,,0.00,meteobridge,2013-05-15 02:58:00,
2013-05-14 23:04:00,41.5,33.8,30.08,SW,215,0.0,0.0,74,0.00,,,0.00,meteobridge,2013-05-15 03:04:00,
2013-05-14 23:09:00,41.4,33.6,30.08,SW,215,0.0,0.0,74,0.00,,,0.00,meteobridge,2013-05-15 03:09:00,
2013-05-14 23:14:00,41.4,34.0,30.08,SW,215,0.0,0.0,75,0.00,,,0.00,meteobridge,2013-05-15 03:14:00,
2013-05-14 23:19:00,41.2,33.8,30.08,SW,215,0.0,0.0,75,0.00,,,0.00,meteobridge,2013-05-15 03:19:00,
2013-05-14 23:24:00,41.2,33.8,30.09,SW,215,0.0,0.0,75,0.00,,,0.00,meteobridge,2013-05-15 03:24:00,
2013-05-14 23:29:00,41.2,34.2,30.09,SW,215,0.0,0.9,76,0.00,,,0.00,meteobridge,2013-05-15 03:29:00,
2013-05-14 23:35:00,40.6,34.0,30.09,SW,215,0.0,0.0,77,0.00,,,0.00,meteobridge,2013-05-15 03:35:00,
2013-05-14 23:40:00,40.5,33.4,30.09,SW,215,0.0,0.9,76,0.00,,,0.00,meteobridge,2013-05-15 03:40:00,
2013-05-14 23:46:00,40.3,33.6,30.09,SW,215,0.0,0.0,77,0.00,,,0.00,meteobridge,2013-05-15 03:46:00,
2013-05-14 23:51:00,40.1,33.4,30.09,SW,215,0.0,0.0,77,0.00,,,0.00,meteobridge,2013-05-15 03:51:00,
2013-05-14 23:57:00,39.9,33.3,30.09,SW,215,0.0,0.0,77,0.00,,,0.00,meteobridge,2013-05-15 03:57:00,